Hourly Weather Roundup
Issued by NWS Central Illinois

Home | Current Version | Previous Version | Text Only | Print | Product List | Glossary On
Versions: 1 2 3 4 5 6 7 8 9 10 11 12 13 14 15 16 17 18 19 20 21 22 23 24 25 26 27 28 29 30 31 32 33 34 35 36 37 38 39 40 41 42 43 44 45 46 47 48 49 50
000
NZUS43 KILX 261810
HWRILX

Area Weather Roundup
National Weather Service Lincoln IL
100 PM CDT WED APR 26 2017

NOTE:  "FAIR" indicates few or no clouds below 12,000 feet, with
       no sigificant weather and/or obstructions to visibility.


CITY           SKY/WX    TMP DP  RH WIND       PRES   REMARKS
Bloomington    CLOUDY    69  58  67 SW14G22   29.55R
6HR MIN TEMP:  61; 6HR MAX TEMP:  70; 6HR PCP: TRACE;

Champaign      CLOUDY    80  52  37 SW26G33   29.53R HX  80
6HR MIN TEMP:  66; 6HR MAX TEMP:  81; 6HR PCP: TRACE;

Danville       MOSUNNY   82  53  37 SW23G33   29.51R HX  81
6HR MIN TEMP:  65; 6HR MAX TEMP:  82;

Decatur        CLOUDY    76  56  49 SW25G32   29.54R
6HR MIN TEMP:  65; 6HR MAX TEMP:  76;

Effingham      PTSUNNY   79  56  45 SW17G25   29.58S HX  80
6HR MIN TEMP:  65; 6HR MAX TEMP:  80;

Flora          MOSUNNY   80  59  47 SW14      29.57F HX  81
6HR MIN TEMP:  65; 6HR MAX TEMP:  82;

Galesburg      CLOUDY    54  50  89 W13G18    29.53R
6HR MIN TEMP:  54; 6HR MAX TEMP:  63;

Jacksonville   LGT RAIN  64  58  81 SW7       29.54F
6HR MIN TEMP:  59; 6HR MAX TEMP:  65;

Lacon          CLOUDY    68  57  66 SW14      29.50R
6HR MIN TEMP:  59; 6HR MAX TEMP:  69; 6HR PCP:  0.01;

Lawrenceville  SUNNY     83  60  45 SW20      29.57S HX  83
6HR MIN TEMP:  65; 6HR MAX TEMP:  83; 6HR PCP: TRACE;

Litchfield     CLOUDY    70  56  60 SW14G21   29.56F
6HR MIN TEMP:  63; 6HR MAX TEMP:  73;

$$


CITY           SKY/WX    TMP DP  RH WIND       PRES   REMARKS
Lincoln        PTSUNNY   72  59  64 SW6       29.54S
6HR MIN TEMP:  65; 6HR MAX TEMP:  72;

Macomb         CLOUDY    55  53  91 W12G17    29.58R
6HR MIN TEMP:  55; 6HR MAX TEMP:  63;

Mattoon        PTSUNNY   77  57  50 SW15G21   29.56R
6HR MIN TEMP:  64; 6HR MAX TEMP:  77;

Mt Carmel AP   SUNNY     82  59  45 S18G24    29.57F HX  82
6HR MIN TEMP:  65; 6HR MAX TEMP:  82;

Olney-Noble AP MOSUNNY   79  60  52 SW12G17   29.57F HX  80
Paris AP       PTSUNNY   81  56  42 SW24G31   29.56R HX  81
6HR MIN TEMP:  64; 6HR MAX TEMP:  84;

Peoria         CLOUDY    67  59  75 SW13      29.52R
6HR MIN TEMP:  59; 6HR MAX TEMP:  70; 6HR PCP: TRACE;

Pontiac        CLOUDY    72  57  58 SW17      29.53R
6HR MIN TEMP:  64; 6HR MAX TEMP:  73;

Rantoul        PTSUNNY   79  56  44 SW12G23   29.54R HX  80
6HR MIN TEMP:  67; 6HR MAX TEMP:  80;

Robinson       SUNNY     82  59  46 S17G24    29.57F HX  82
6HR MIN TEMP:  64; 6HR MAX TEMP:  82;

Springfield    CLOUDY    71  56  58 SW14G21   29.55S
6HR MIN TEMP:  65; 6HR MAX TEMP:  72;

Taylorville    CLOUDY    74  55  51 SW17G23   29.54F
6HR MIN TEMP:  65; 6HR MAX TEMP:  75;

$$

...REGIONAL REPORTS...


CITY           SKY/WX    TMP DP  RH WIND       PRES   REMARKS
Chicago O`Hare PTSUNNY   74  57  55 SW18G25   29.47R
Kankakee       MOSUNNY   77  56  48 SW20G29   29.52R
Moline         CLOUDY    55  49  80 W10       29.51R
Mount Sterling CLOUDY    56  54  90 NW10      29.55R
Mount Vernon   PTSUNNY   77  63  61 SW14      29.58F
Pittsfield     DRIZZLE   62  59  91 SW6       29.55F
Quincy         CLOUDY    54  50  86 W8        29.56R
Rockford       CLOUDY    68  59  73 SW16G24   29.48R
$$


CITY           SKY/WX    TMP DP  RH WIND       PRES   REMARKS
Burlington     CLOUDY    51  47  86 W9        29.54F
Cedar Rapids   CLOUDY    48  47  96 W16       29.52R
Des Moines     CLOUDY    50  39  66 NW21      29.58S
Kirksville     CLOUDY    46  43  89 NW6       29.61R
Ottumwa        CLOUDY    47  43  86 NW12      29.56F
St Louis       LGT RAIN  66  59  78 S12       29.57F
$$


CITY           SKY/WX    TMP DP  RH WIND       PRES   REMARKS
Terre Haute    SUNNY     81  57  43 S17G25    29.55S HX  81
Evansville     SUNNY     83  64  52 S15G24    29.59F HX  84
Indianapolis   MOSUNNY   81  62  52 S15G24    29.55S HX  82
Lafayette      SUNNY     80  56  43 SW17G26   29.51S HX  80
Madison        CLOUDY    62  58  86 SW7       29.41R
Milwaukee      CLOUDY    66  59  78 SW16G25   29.45R
$$






USA.gov is the U.S. government's official web portal to all federal, state and local government web resources and services.